Manitowoc, WI

4:45 AM CDT on August 18, 2017 (GMT -0500)
Manitowoc County

Weather History for KMTW - October, 2013

Change the Weather History Date:

Saturday, October 19, 2013

  Actual Average Record
Temperature  
Mean Temperature 44 °F -  
Max Temperature 53 °F 53 °F 72 °F (1950)
Min Temperature 36 °F 38 °F 19 °F (1972)
Degree Days  
Heating Degree Days 21    
Moisture  
Dew Point 34 °F    
Average Humidity 71    
Maximum Humidity 97    
Minimum Humidity 39    
Precipitation  
Precipitation 0.00 in - - ()
Sea Level Pressure  
Sea Level Pressure 29.84 in    
Wind  
Wind Speed 7 mph (WSW)    
Max Wind Speed 14 mph    
Max Gust Speed 16 mph    
Visibility 10 miles    
Events      
Averages and records for this station are not official NWS values.
T = Trace of Precipitation, MM = Missing Value Source: NWS Daily Summary

Daily Weather History Graph

Daily Weather History Graph

Search for Another Location

Airport or City:

Trip Planner

Search our weather history database for the weather conditions in past years. The results will help you decide how hot, cold, wet, or windy it might be!

Date:

Astronomy

Oct. 19, 2013 Rise Set
Actual Time 7:10 AM CDT 5:59 PM CDT
Civil Twilight 6:41 AM CDT 6:29 PM CDT
Nautical Twilight 6:07 AM CDT 7:02 PM CDT
Astronomical Twilight 5:34 AM CDT 7:36 PM CDT
Moon 6:24 PM CDT (10/19) 7:50 AM CDT (10/19)
Length of Visible Light 11h 47m
Length of Day
10h 48m
Waxing Gibbous, 99% of the Moon is Illuminated
Oct 19
Waxing Gibbous
Oct 26
Last Quarter
Nov 3
New
Nov 9
First Quarter
Nov 17
Full

Hourly Weather History & Observations

Time (CDT) Temp. Windchill Dew Point Humidity Pressure Visibility Wind Dir Wind Speed Gust Speed Precip Events Conditions
12:56 AM 42.1 °F 37.7 °F 37.9 °F 85% 29.95 in 10.0 mi West 6.9 mph - N/A   Clear
1:56 AM 41.0 °F 37.1 °F 37.9 °F 89% 29.94 in 10.0 mi WNW 5.8 mph - N/A   Scattered Clouds
2:56 AM 39.9 °F 36.7 °F 37.0 °F 89% 29.92 in 10.0 mi West 4.6 mph - N/A   Overcast
3:56 AM 41.0 °F 38.0 °F 37.0 °F 86% 29.90 in 10.0 mi WNW 4.6 mph - N/A   Scattered Clouds
4:56 AM 39.9 °F 37.8 °F 36.0 °F 86% 29.88 in 10.0 mi NW 3.5 mph - N/A   Partly Cloudy
5:56 AM 39.0 °F - 36.0 °F 89% 29.88 in 10.0 mi Calm Calm - N/A   Clear
6:56 AM 36.0 °F 33.3 °F 35.1 °F 97% 29.87 in 10.0 mi SSW 3.5 mph - N/A   Clear
7:56 AM 37.0 °F 34.5 °F 35.1 °F 93% 29.88 in 10.0 mi WSW 3.5 mph - N/A   Clear
8:56 AM 44.1 °F 41.5 °F 37.0 °F 76% 29.88 in 10.0 mi West 4.6 mph - N/A   Clear
9:56 AM 46.9 °F - 34.0 °F 61% 29.86 in 10.0 mi WSW 9.2 mph - N/A   Clear
10:56 AM 50.0 °F - 32.0 °F 50% 29.84 in 10.0 mi West 9.2 mph - N/A   Clear
11:56 AM 51.1 °F - 28.9 °F 43% 29.82 in 10.0 mi SW 10.4 mph - N/A   Clear
12:56 PM 51.1 °F - 27.0 °F 39% 29.80 in 10.0 mi WSW 9.2 mph - N/A   Partly Cloudy
1:56 PM 52.0 °F - 28.9 °F 41% 29.78 in 10.0 mi SSW 13.8 mph - N/A   Overcast
2:56 PM 51.1 °F - 30.9 °F 46% 29.77 in 10.0 mi WSW 12.7 mph - N/A   Scattered Clouds
3:56 PM 50.0 °F - 33.1 °F 52% 29.78 in 10.0 mi SSW 5.8 mph - N/A   Mostly Cloudy
4:56 PM 51.1 °F - 30.9 °F 46% 29.78 in 10.0 mi West 10.4 mph - N/A   Clear
5:56 PM 48.0 °F - 32.0 °F 54% 29.79 in 10.0 mi WSW 3.5 mph - N/A   Clear
6:56 PM 46.0 °F 40.6 °F 37.0 °F 71% 29.81 in 10.0 mi West 11.5 mph - N/A   Mostly Cloudy
7:56 PM 44.1 °F 38.6 °F 36.0 °F 73% 29.82 in 10.0 mi West 10.4 mph 16.1 mph N/A   Partly Cloudy
8:56 PM 42.1 °F 37.1 °F 36.0 °F 79% 29.82 in 10.0 mi WSW 8.1 mph - N/A   Partly Cloudy
9:56 PM 39.9 °F 36.7 °F 37.0 °F 89% 29.83 in 10.0 mi SW 4.6 mph - N/A   Overcast
10:56 PM 41.0 °F 36.4 °F 37.0 °F 86% 29.82 in 10.0 mi WSW 6.9 mph - N/A   Overcast
11:56 PM 39.9 °F 35.1 °F 37.0 °F 89% 29.83 in 10.0 mi West 6.9 mph - N/A   Scattered Clouds